{"data":{"norad_id":60592,"intl_designator":"2024-150K","name":"STARLINK-31497","alt_names":[],"object_type":"PAYLOAD","status":"ACTIVE","operator":null,"country":"US","launch_date":"2024-08-20","launch_site_code":"AFETR","launch_vehicle":null,"mission":null,"orbit_class":"UNKNOWN","rcs_meters":null,"size_class":null,"mass_kg":null,"dimensions":null,"purposes":["comms"],"wikipedia_slug":null,"has_3d_model":false,"image_url":null,"decayed_at":null,"tle_current":{"epoch":"2026-09-21T19:59:19.779648Z","epoch_age_seconds":73410,"freshness":"FRESH","line1":"1 60592U 24150K   26264.83286782 -.00000107  00000+0  79663-5 0  9992","line2":"2 60592  53.1587 111.5735 0001328  97.0520 263.0634 15.34385170118138","mean_motion":15.3438517,"eccentricity":0.0001328,"inclination_deg":53.1587,"raan_deg":111.5735,"arg_perigee_deg":97.052,"mean_anomaly_deg":263.0634,"bstar":7.9663e-6,"rev_number":11813,"period_min":93.848665130151,"perigee_km":461.83884900991,"apogee_km":463.65578788489,"semimajor_km":6840.8843184474,"source":"CELESTRAK","updated_at":"2026-09-22T09:00:49.273000Z"}}}